sat.trackr.live / text

‹ back to catalog

FLOCK 4H-3

NORAD 66706 · 2025-276AS

PAYLOAD ACTIVE UNKNOWN

§ Identity

Operator
Country
US
Launch date
2025-11-28
Launch site
AFWTR
Launch vehicle
Mass (kg)
RCS (m²)

Purposes: earth_obs

External: N2YO · Heavens-Above · Gunter

§ Orbital elements

Epoch: 2026-05-25T03:42:54.586944Z

Period
94.76 min
Inclination
97.4246°
Eccentricity
0.0005577
Mean motion
15.19635545 rev/d
Perigee alt
503.1 km
Apogee alt
510.8 km
Semi-major
6,885.1 km
B*
2.7119e-4
RAAN
219.1856°
Arg perigee
87.7408°
Mean anomaly
272.4465°
Rev number
2,692

§ Raw data

FLOCK 4H-31 66706U 25276AS  26145.15479846  .00005714  00000+0  27119-3 0  99982 66706  97.4246 219.1856 0005577  87.7408 272.4465 15.19635545 26922

JSON: /api/v1/satellites/66706 · /tle

For live sub-satellite position, see the globe view (requires WebGL).

§ Visibility from observer

Set your observer location to see the next 7 days of passes ≥ 10°. The values pass through the URL so the page stays shareable.

No JS? Fill the form by hand. The geolocation button needs JavaScript.